Orbital Elements at Epoch 2459000.5 (2020-May-31.0) TDB
Reference: JPL 17 (heliocentric ecliptic J2000)
Element | Value | Uncertainty (1-sigma) | Units |
e | .1477915601011831 | 3.4897e-08 | |
a | 3.202805209213937 | 3.0652e-08 | au |
q | 2.729457630644013 | 1.2216e-07 | au |
i | 6.370378999572823 | 3.906e-06 | deg |
node | 89.30261305469377 | 4.8464e-05 | deg |
peri | 9.445686932020475 | 5.1881e-05 | deg |
M | 271.2934591829466 | 1.9834e-05 | deg |
tp | 2459516.378417947643 (2021-Oct-28.87841795) | 0.00011875 | TDB |
period | 2093.602441833112 5.73 | 3.0055e-05 8.229e-08 | d yr |
n | .171952416947313 | 2.4685e-09 | deg/d |
Q | 3.676152787783861 | 3.5182e-08 | au |
|
| | Orbit Determination Parameters
Additional Information
|